When you browse on this site, cookies collect data to enhance your experience and personalize the content and advertising you see.
Visit our Privacy Policy to learn more. By continuing to use the site, you agree to this use of cookies and data.
  • In Spain
  • List of Countries
  • For 7 days
  • Water Temperature
  • Weather Map
  • Weather Widgets
  • user-avatar
    Login

    Hourly Weather Warwick

    Today, 30 May, Saturday

    Time Temperature Precipitation Wind Pressure Humidity
    00:00 +9°C° 0 mm 3 mps 764 mmHg 84%
    01:00 +8°C° 0 mm 3 mps 764 mmHg 82%
    02:00 +7°C° 0 mm 3 mps 763 mmHg 81%
    03:00 +7°C° 0 mm 2 mps 763 mmHg 79%
    04:00 +7°C° 0 mm 2 mps 763 mmHg 79%
    05:00 +8°C° 0 mm 3 mps 763 mmHg 79%
    06:00 +9°C° 0 mm 3 mps 763 mmHg 76%
    07:00 +11°C° 0 mm 3 mps 763 mmHg 76%
    08:00 +13°C° 0 mm 3 mps 763 mmHg 76%
    09:00 +17°C° 0 mm 4 mps 763 mmHg 75%
    10:00 +18°C° 0 mm 4 mps 763 mmHg 71%
    11:00 +19°C° 0 mm 4 mps 762 mmHg 67%
    12:00 +21°C° 0 mm 4 mps 762 mmHg 62%
    13:00 +21°C° 0 mm 4 mps 762 mmHg 62%
    14:00 +22°C° 0 mm 4 mps 762 mmHg 62%
    15:00 +22°C° 0 mm 4 mps 762 mmHg 61%
    16:00 +21°C° 0 mm 4 mps 761 mmHg 65%
    17:00 +20°C° 0 mm 4 mps 761 mmHg 69%
    18:00 +20°C° 0 mm 4 mps 761 mmHg 73%
    19:00 +18°C° 0 mm 4 mps 761 mmHg 77%
    20:00 +15°C° 0 mm 4 mps 762 mmHg 81%
    21:00 +13°C° 0 mm 4 mps 762 mmHg 86%
    22:00 +12°C° 0 mm 4 mps 762 mmHg 87%
    23:00 +11°C° 0 mm 4 mps 762 mmHg 89%

    Tomorrow, 31 May, Sunday

    Time Temperature Precipitation Wind Pressure Humidity
    00:00 +10°C° 0 mm 3 mps 762 mmHg 91%
    01:00 +9°C° 0 mm 3 mps 762 mmHg 91%
    02:00 +9°C° 0 mm 3 mps 762 mmHg 91%
    03:00 +9°C° 0 mm 3 mps 762 mmHg 92%
    04:00 +9°C° 0 mm 3 mps 762 mmHg 90%
    05:00 +10°C° 0 mm 4 mps 762 mmHg 88%
    06:00 +11°C° 0 mm 4 mps 763 mmHg 86%
    07:00 +13°C° 0 mm 4 mps 763 mmHg 80%
    08:00 +15°C° 0 mm 4 mps 763 mmHg 75%
    09:00 +17°C° 0 mm 5 mps 763 mmHg 69%
    10:00 +19°C° 0 mm 5 mps 763 mmHg 66%
    11:00 +20°C° 0 mm 5 mps 763 mmHg 63%
    12:00 +21°C° 0 mm 5 mps 763 mmHg 59%
    13:00 +21°C° 0.1 mm 5 mps 763 mmHg 61%
    14:00 +21°C° 0.1 mm 5 mps 763 mmHg 62%
    15:00 +21°C° 0.1 mm 5 mps 763 mmHg 63%
    16:00 +20°C° 0.1 mm 5 mps 763 mmHg 66%
    17:00 +20°C° 0.1 mm 4 mps 763 mmHg 69%
    18:00 +19°C° 0.1 mm 4 mps 763 mmHg 72%
    19:00 +17°C° 0 mm 4 mps 763 mmHg 76%
    20:00 +14°C° 0 mm 4 mps 763 mmHg 80%
    21:00 +13°C° 0 mm 4 mps 764 mmHg 85%
    22:00 +12°C° 0 mm 3 mps 764 mmHg 87%
    23:00 +10°C° 0 mm 3 mps 764 mmHg 89%

    Day after tomorrow, 1 June, Monday

    Time Temperature Precipitation Wind Pressure Humidity
    00:00 +9°C° 0 mm 3 mps 764 mmHg 91%
    01:00 +9°C° 0 mm 3 mps 763 mmHg 91%
    02:00 +9°C° 0 mm 3 mps 763 mmHg 91%
    03:00 +8°C° 0 mm 3 mps 763 mmHg 92%
    04:00 +9°C° 0 mm 3 mps 763 mmHg 91%
    05:00 +10°C° 0 mm 3 mps 763 mmHg 90%
    06:00 +11°C° 0 mm 4 mps 763 mmHg 89%
    07:00 +13°C° 0 mm 4 mps 763 mmHg 84%
    08:00 +15°C° 0 mm 4 mps 763 mmHg 79%
    09:00 +17°C° 0 mm 5 mps 763 mmHg 74%
    10:00 +19°C° 0 mm 5 mps 763 mmHg 71%
    11:00 +19°C° 0 mm 5 mps 763 mmHg 68%
    12:00 +20°C° 0 mm 5 mps 763 mmHg 66%
    13:00 +20°C° 0.1 mm 5 mps 762 mmHg 66%
    14:00 +20°C° 0.1 mm 5 mps 762 mmHg 67%
    15:00 +20°C° 0.1 mm 4 mps 762 mmHg 68%
    16:00 +20°C° 0 mm 4 mps 762 mmHg 70%
    17:00 +19°C° 0 mm 5 mps 762 mmHg 71%
    18:00 +17°C° 0 mm 5 mps 761 mmHg 72%
    19:00 +15°C° 0 mm 4 mps 762 mmHg 78%
    20:00 +13°C° 0 mm 4 mps 762 mmHg 83%
    21:00 +11°C° 0 mm 3 mps 762 mmHg 89%
    22:00 +10°C° 0 mm 3 mps 762 mmHg 91%
    23:00 +9°C° 0 mm 3 mps 762 mmHg 92%

    2 June, Tuesday

    Time Temperature Precipitation Wind Pressure Humidity
    00:00 +8°C° 0 mm 2 mps 762 mmHg 94%
    01:00 +8°C° 0 mm 2 mps 761 mmHg 95%
    02:00 +8°C° 0 mm 2 mps 761 mmHg 95%
    03:00 +7°C° 0 mm 2 mps 761 mmHg 96%
    04:00 +8°C° 0 mm 2 mps 760 mmHg 95%
    05:00 +9°C° 0 mm 2 mps 760 mmHg 94%
    06:00 +10°C° 0 mm 2 mps 760 mmHg 93%
    07:00 +13°C° 0 mm 2 mps 760 mmHg 88%
    08:00 +15°C° 0 mm 2 mps 760 mmHg 83%
    09:00 +17°C° 0 mm 3 mps 759 mmHg 77%
    10:00 +18°C° 0 mm 2 mps 759 mmHg 73%
    11:00 +20°C° 0 mm 2 mps 759 mmHg 70%
    12:00 +21°C° 0 mm 2 mps 758 mmHg 66%
    13:00 +21°C° 0.1 mm 2 mps 758 mmHg 66%
    14:00 +21°C° 0.1 mm 2 mps 757 mmHg 67%
    15:00 +21°C° 0.1 mm 2 mps 756 mmHg 67%
    16:00 +21°C° 0.2 mm 2 mps 756 mmHg 70%
    17:00 +21°C° 0.2 mm 2 mps 755 mmHg 73%
    18:00 +20°C° 0.2 mm 2 mps 755 mmHg 76%
    19:00 +19°C° 0.1 mm 2 mps 755 mmHg 79%
    20:00 +17°C° 0.1 mm 2 mps 755 mmHg 82%
    21:00 +16°C° 0.1 mm 2 mps 755 mmHg 85%
    22:00 +15°C° 0 mm 2 mps 754 mmHg 85%
    23:00 +14°C° 0 mm 2 mps 754 mmHg 85%

    3 June, Wednesday

    Time Temperature Precipitation Wind Pressure Humidity
    00:00 +14°C° 0 mm 2 mps 754 mmHg 85%
    01:00 +14°C° 0.2 mm 2 mps 753 mmHg 87%
    02:00 +13°C° 0.2 mm 2 mps 753 mmHg 89%
    03:00 +13°C° 0.2 mm 2 mps 752 mmHg 90%
    04:00 +12°C° 0.7 mm 3 mps 752 mmHg 91%
    05:00 +12°C° 0.7 mm 3 mps 752 mmHg 92%
    06:00 +12°C° 0.7 mm 4 mps 752 mmHg 93%
    07:00 +13°C° 1.1 mm 4 mps 752 mmHg 92%
    08:00 +13°C° 1.1 mm 5 mps 752 mmHg 91%
    09:00 +14°C° 1.1 mm 5 mps 752 mmHg 91%
    10:00 +14°C° 0.1 mm 5 mps 752 mmHg 88%
    11:00 +15°C° 0.1 mm 6 mps 752 mmHg 85%
    12:00 +16°C° 0.1 mm 6 mps 752 mmHg 82%
    13:00 +16°C° 0.1 mm 6 mps 752 mmHg 80%
    14:00 +16°C° 0.1 mm 7 mps 752 mmHg 79%
    15:00 +17°C° 0.1 mm 7 mps 752 mmHg 77%
    16:00 +16°C° 0 mm 7 mps 752 mmHg 79%
    17:00 +16°C° 0 mm 8 mps 752 mmHg 80%
    18:00 +15°C° 0 mm 8 mps 752 mmHg 81%
    19:00 +13°C° 0 mm 8 mps 752 mmHg 82%
    20:00 +12°C° 0 mm 8 mps 753 mmHg 82%
    21:00 +12°C° 0 mm 8 mps 753 mmHg 82%
    22:00 +11°C° 0 mm 8 mps 753 mmHg 83%
    23:00 +11°C° 0 mm 8 mps 753 mmHg 83%

    4 June, Thursday

    Time Temperature Precipitation Wind Pressure Humidity
    00:00 +10°C° 0 mm 8 mps 753 mmHg 84%
    01:00 +10°C° 0 mm 8 mps 753 mmHg 84%
    02:00 +10°C° 0 mm 8 mps 753 mmHg 84%
    03:00 +10°C° 0 mm 7 mps 753 mmHg 84%
    04:00 +10°C° 0.1 mm 7 mps 753 mmHg 86%
    05:00 +10°C° 0.1 mm 7 mps 753 mmHg 87%
    06:00 +10°C° 0.1 mm 7 mps 753 mmHg 88%
    07:00 +10°C° 0 mm 7 mps 753 mmHg 86%
    08:00 +11°C° 0 mm 7 mps 753 mmHg 83%
    09:00 +12°C° 0 mm 7 mps 753 mmHg 80%
    10:00 +14°C° 0 mm 6 mps 753 mmHg 78%
    11:00 +15°C° 0 mm 6 mps 753 mmHg 75%
    12:00 +16°C° 0 mm 5 mps 753 mmHg 73%
    13:00 +17°C° 0 mm 5 mps 753 mmHg 72%
    14:00 +18°C° 0 mm 4 mps 753 mmHg 72%
    15:00 +19°C° 0 mm 4 mps 753 mmHg 72%
    16:00 +19°C° 0 mm 4 mps 752 mmHg 73%
    17:00 +18°C° 0 mm 3 mps 752 mmHg 74%
    18:00 +18°C° 0 mm 3 mps 752 mmHg 76%
    19:00 +16°C° 0 mm 3 mps 752 mmHg 81%
    20:00 +15°C° 0 mm 2 mps 752 mmHg 86%
    21:00 +13°C° 0 mm 2 mps 752 mmHg 91%
    22:00 +12°C° 0 mm 1 mps 752 mmHg 90%
    23:00 +11°C° 0 mm 1 mps 752 mmHg 88%
    Show more